WJA2232 CYYZ-TAPA

Flight info

Callsign WJA2232
Flight time N/A
Altitude 35000
Route KEPTA3 BMPAH AEVON EXTOL Q140 ARRKK JFK SHIPP Y483 SHERL ICCEY Y488 OHRYN Y482 SQUAD DARUX L459 ODUCA ELOPO
Aircraft B38M/M-SDE1FGHILORVWXY/HB1

Departure

Time N/A
Airport Toronto Pearson International Airport (CYYZ)

Arrival

Time 2026-05-03 23:00
Airport V. C. Bird International Airport (TAPA)
Time Latitude Longitude Altitude Speed Heading
2026-05-03 20:15 35.63649 -68.95729 35005 ft 483 kts 159°
2026-05-03 20:15 35.58312 -68.90700 35007 ft 483 kts 159°
2026-05-03 20:16 35.52979 -68.85684 34962 ft 484 kts 159°
2026-05-03 20:16 35.47675 -68.80703 35002 ft 483 kts 159°
2026-05-03 20:17 35.42343 -68.75706 35010 ft 483 kts 159°
2026-05-03 20:17 35.37006 -68.70711 35009 ft 483 kts 159°
2026-05-03 20:18 35.32566 -68.66563 35009 ft 483 kts 159°
2026-05-03 20:18 35.26367 -68.60781 34974 ft 484 kts 159°
2026-05-03 20:19 35.20999 -68.55783 35010 ft 485 kts 159°
2026-05-03 20:19 35.15629 -68.50792 34994 ft 484 kts 158°
2026-05-03 20:20 35.11162 -68.46647 35010 ft 485 kts 158°
2026-05-03 20:20 35.04927 -68.40871 35009 ft 485 kts 158°
2026-05-03 20:21 34.99553 -68.35902 34943 ft 485 kts 158°
2026-05-03 20:21 34.95079 -68.31771 35011 ft 487 kts 158°
2026-05-03 20:22 34.89676 -68.26790 35008 ft 486 kts 158°
2026-05-03 20:22 34.83404 -68.21019 35010 ft 487 kts 158°
2026-05-03 20:23 34.78882 -68.16864 34986 ft 486 kts 158°
2026-05-03 20:23 34.73510 -68.11937 35009 ft 487 kts 158°
2026-05-03 20:24 34.68110 -68.06993 34995 ft 487 kts 158°
2026-05-03 20:24 34.62687 -68.02036 35014 ft 488 kts 158°
2026-05-03 20:25 34.57266 -67.97088 35023 ft 487 kts 158°
2026-05-03 20:25 34.51879 -67.92180 35012 ft 487 kts 158°
2026-05-03 20:26 34.46463 -67.87254 35019 ft 487 kts 158°
2026-05-03 20:26 34.41037 -67.82326 34958 ft 488 kts 158°
2026-05-03 20:27 34.35594 -67.77392 35019 ft 489 kts 158°
2026-05-03 20:27 34.30147 -67.72460 35014 ft 489 kts 158°
2026-05-03 20:28 34.24745 -67.67578 35019 ft 489 kts 158°
2026-05-03 20:28 34.19297 -67.62662 35019 ft 489 kts 158°
2026-05-03 20:29 34.13712 -67.58366 34997 ft 450 kts 176°
2026-05-03 20:29 34.10774 -67.57413 35016 ft 434 kts 182°
2026-05-03 20:29 34.07819 -67.56617 35015 ft 435 kts 184°
2026-05-03 20:30 34.01949 -67.55231 35020 ft 432 kts 185°
2026-05-03 20:30 33.96053 -67.53937 34986 ft 431 kts 185°
2026-05-03 20:31 33.90131 -67.52664 35027 ft 433 kts 185°
2026-05-03 20:31 33.84210 -67.51396 35023 ft 432 kts 185°
2026-05-03 20:32 33.78293 -67.50131 35024 ft 432 kts 185°
2026-05-03 20:32 33.72419 -67.48876 35026 ft 432 kts 185°
2026-05-03 20:33 33.66498 -67.47613 35031 ft 432 kts 185°
2026-05-03 20:33 33.60578 -67.46352 34984 ft 432 kts 185°
2026-05-03 20:34 33.54646 -67.45091 35031 ft 434 kts 184°
2026-05-03 20:34 33.48744 -67.43838 35027 ft 433 kts 185°
2026-05-03 20:35 33.42806 -67.42578 35030 ft 433 kts 185°
2026-05-03 20:35 33.36870 -67.41321 34996 ft 433 kts 184°
2026-05-03 20:36 33.30938 -67.40067 35034 ft 434 kts 184°
2026-05-03 20:36 33.25030 -67.38819 35030 ft 434 kts 184°
2026-05-03 20:37 33.19086 -67.37565 35035 ft 434 kts 184°
2026-05-03 20:37 33.13144 -67.36313 35032 ft 433 kts 184°
2026-05-03 20:38 33.07207 -67.35064 35024 ft 435 kts 184°
2026-05-03 20:38 33.01280 -67.33819 35036 ft 435 kts 184°
2026-05-03 20:39 32.95326 -67.32571 35036 ft 435 kts 184°
2026-05-03 20:39 32.89364 -67.31322 35036 ft 435 kts 184°
2026-05-03 20:40 32.83411 -67.30077 34998 ft 435 kts 184°
2026-05-03 20:40 32.77473 -67.28836 35033 ft 436 kts 184°
2026-05-03 20:41 32.71509 -67.27592 35031 ft 435 kts 184°
2026-05-03 20:41 32.65539 -67.26349 35031 ft 435 kts 184°
2026-05-03 20:42 32.59577 -67.25108 35030 ft 435 kts 184°
2026-05-03 20:42 32.53608 -67.23868 35031 ft 436 kts 184°
2026-05-03 20:43 32.47670 -67.22636 35037 ft 436 kts 184°
2026-05-03 20:43 32.41693 -67.21398 35007 ft 436 kts 184°
2026-05-03 20:44 32.35701 -67.20158 35040 ft 437 kts 184°
2026-05-03 20:44 32.29763 -67.18930 35027 ft 435 kts 182°
2026-05-03 20:45 32.23808 -67.17702 35040 ft 434 kts 182°
2026-05-03 20:45 32.17867 -67.16477 35043 ft 434 kts 182°
2026-05-03 20:46 32.11919 -67.15253 35041 ft 434 kts 182°
2026-05-03 20:46 32.06020 -67.14041 35012 ft 434 kts 182°
2026-05-03 20:47 32.00074 -67.12821 35038 ft 434 kts 181°
2026-05-03 20:47 31.94128 -67.11601 35040 ft 434 kts 181°
2026-05-03 20:48 31.88183 -67.10384 35047 ft 434 kts 181°
2026-05-03 20:48 31.82287 -67.09178 35044 ft 433 kts 181°
2026-05-03 20:49 31.76338 -67.07963 35040 ft 435 kts 181°
2026-05-03 20:49 31.70379 -67.06748 35047 ft 435 kts 181°
2026-05-03 20:50 31.64418 -67.05534 35052 ft 435 kts 181°
2026-05-03 20:50 31.58459 -67.04322 35049 ft 435 kts 181°
2026-05-03 20:51 31.52543 -67.03120 35021 ft 435 kts 180°
2026-05-03 20:51 31.46568 -67.01908 35051 ft 436 kts 180°
2026-05-03 20:52 31.40588 -67.00696 35054 ft 436 kts 180°
2026-05-03 20:52 31.34618 -66.99489 35053 ft 436 kts 180°
2026-05-03 20:53 31.28678 -66.98288 35055 ft 436 kts 180°
2026-05-03 20:53 31.22700 -66.97082 35051 ft 436 kts 180°
2026-05-03 20:54 31.16725 -66.95877 35052 ft 436 kts 180°
2026-05-03 20:54 31.07771 -66.94075 35051 ft 436 kts 180°
2026-05-03 20:55 31.01837 -66.92883 35055 ft 436 kts 180°
2026-05-03 20:55 30.95848 -66.91681 35045 ft 439 kts 179°
2026-05-03 20:56 30.89828 -66.90474 35049 ft 439 kts 179°
2026-05-03 20:56 30.83821 -66.89272 35036 ft 439 kts 179°
2026-05-03 20:57 30.77802 -66.88069 35063 ft 443 kts 179°
2026-05-03 20:57 30.71732 -66.86857 35026 ft 444 kts 179°
2026-05-03 20:58 30.65619 -66.85638 35058 ft 446 kts 179°
2026-05-03 20:58 30.59501 -66.84420 35058 ft 446 kts 179°
2026-05-03 20:59 30.53430 -66.83212 35053 ft 446 kts 179°
2026-05-03 20:59 30.47316 -66.81998 35056 ft 446 kts 179°
2026-05-03 21:00 30.42214 -66.80986 35050 ft 449 kts 179°
2026-05-03 21:00 30.35017 -66.79560 35059 ft 449 kts 179°
2026-05-03 21:01 30.28893 -66.78348 35059 ft 449 kts 179°
2026-05-03 21:01 30.22724 -66.77129 35052 ft 450 kts 179°
2026-05-03 21:02 30.16555 -66.75911 35037 ft 451 kts 179°
2026-05-03 21:02 30.10358 -66.74690 35046 ft 452 kts 179°
2026-05-03 21:03 30.04200 -66.73477 35047 ft 452 kts 179°
2026-05-03 21:03 29.97997 -66.72258 35048 ft 452 kts 179°
2026-05-03 21:04 29.91794 -66.71040 35016 ft 452 kts 179°
2026-05-03 21:04 29.85563 -66.69833 35054 ft 456 kts 179°
2026-05-03 21:05 29.79321 -66.68624 35052 ft 455 kts 179°
2026-05-03 21:05 29.73118 -66.67424 35050 ft 455 kts 179°
2026-05-03 21:06 29.66873 -66.66217 35047 ft 455 kts 179°
2026-05-03 21:06 29.60631 -66.65012 35044 ft 457 kts 179°
2026-05-03 21:07 29.54357 -66.63803 35051 ft 457 kts 179°
2026-05-03 21:07 29.48128 -66.62604 35055 ft 457 kts 179°
2026-05-03 21:08 29.41856 -66.61398 35060 ft 457 kts 179°
2026-05-03 21:08 29.35596 -66.60196 35034 ft 457 kts 179°
2026-05-03 21:09 29.29341 -66.58997 35064 ft 459 kts 178°
2026-05-03 21:09 29.23041 -66.57790 35066 ft 459 kts 178°
2026-05-03 21:10 29.16736 -66.56584 35069 ft 460 kts 178°
2026-05-03 21:10 29.10412 -66.55376 35065 ft 461 kts 178°
2026-05-03 21:11 29.04069 -66.54165 35066 ft 463 kts 178°
2026-05-03 21:11 28.97756 -66.52962 35070 ft 463 kts 178°
2026-05-03 21:12 28.91411 -66.51754 35071 ft 463 kts 178°
2026-05-03 21:12 28.85061 -66.50547 35070 ft 463 kts 178°
2026-05-03 21:13 28.78711 -66.49341 35063 ft 463 kts 178°
2026-05-03 21:13 28.72388 -66.48142 35074 ft 464 kts 178°
2026-05-03 21:14 28.66031 -66.46938 35077 ft 463 kts 178°
2026-05-03 21:14 28.59671 -66.45735 35078 ft 463 kts 178°
2026-05-03 21:15 28.53308 -66.44533 35081 ft 463 kts 178°
2026-05-03 21:15 28.46946 -66.43332 35084 ft 463 kts 178°
2026-05-03 21:16 28.40633 -66.42142 35081 ft 463 kts 178°
2026-05-03 21:16 28.34276 -66.40946 35083 ft 463 kts 178°
2026-05-03 21:17 28.28994 -66.39952 35085 ft 463 kts 178°
2026-05-03 21:17 28.21550 -66.38554 35080 ft 464 kts 178°
2026-05-03 21:18 28.15230 -66.37369 35083 ft 464 kts 178°
2026-05-03 21:18 28.08853 -66.36174 35091 ft 464 kts 178°
2026-05-03 21:19 28.02478 -66.34981 35093 ft 464 kts 178°
2026-05-03 21:19 27.96104 -66.33790 35074 ft 465 kts 177°
2026-05-03 21:20 27.89721 -66.32598 35088 ft 466 kts 177°
2026-05-03 21:20 27.83368 -66.31414 35093 ft 466 kts 177°
2026-05-03 21:21 27.76976 -66.30223 35094 ft 466 kts 177°
2026-05-03 21:21 27.70581 -66.29034 35094 ft 466 kts 177°
2026-05-03 21:22 27.64189 -66.27846 35106 ft 467 kts 177°
2026-05-03 21:22 27.57816 -66.26664 35103 ft 467 kts 177°
2026-05-03 21:23 27.51404 -66.25475 35101 ft 467 kts 177°
2026-05-03 21:23 27.44982 -66.24286 35105 ft 469 kts 177°
2026-05-03 21:24 27.38550 -66.23097 35086 ft 469 kts 176°
2026-05-03 21:24 27.32136 -66.21912 35102 ft 470 kts 176°
2026-05-03 21:25 27.25679 -66.20721 35103 ft 470 kts 176°
2026-05-03 21:25 27.19231 -66.19533 35108 ft 470 kts 176°
2026-05-03 21:26 27.12778 -66.18345 35104 ft 470 kts 176°
2026-05-03 21:26 27.06366 -66.17167 35113 ft 471 kts 176°
2026-05-03 21:27 26.99895 -66.15978 35110 ft 471 kts 176°
2026-05-03 21:27 26.93429 -66.14793 35111 ft 471 kts 176°
2026-05-03 21:28 26.86973 -66.13610 35107 ft 471 kts 176°
2026-05-03 21:28 26.80548 -66.12434 35101 ft 471 kts 176°
2026-05-03 21:29 26.74077 -66.11252 35111 ft 471 kts 176°
2026-05-03 21:29 26.67617 -66.10072 35110 ft 471 kts 176°
2026-05-03 21:30 26.61148 -66.08893 35112 ft 471 kts 176°
2026-05-03 21:30 26.54721 -66.07722 35097 ft 471 kts 175°
2026-05-03 21:31 26.48252 -66.06545 35112 ft 471 kts 175°
2026-05-03 21:31 26.41793 -66.05371 35113 ft 471 kts 175°
2026-05-03 21:32 26.35323 -66.04197 35111 ft 471 kts 175°
2026-05-03 21:32 26.28853 -66.03024 35111 ft 471 kts 175°
2026-05-03 21:33 26.22433 -66.01861 35109 ft 471 kts 175°
2026-05-03 21:33 26.15970 -66.00692 35113 ft 471 kts 175°
2026-05-03 21:34 26.09492 -65.99522 35111 ft 471 kts 175°
2026-05-03 21:34 26.03029 -65.98355 35114 ft 471 kts 175°
2026-05-03 21:35 25.96603 -65.97196 35112 ft 471 kts 175°
2026-05-03 21:35 25.90140 -65.96032 35117 ft 472 kts 175°
2026-05-03 21:36 25.83661 -65.94867 35113 ft 471 kts 175°
2026-05-03 21:36 25.77229 -65.93711 35113 ft 471 kts 175°
2026-05-03 21:37 25.70753 -65.92549 35109 ft 472 kts 175°
2026-05-03 21:37 25.64262 -65.91385 35113 ft 473 kts 175°
2026-05-03 21:38 25.57774 -65.90223 35114 ft 473 kts 175°
2026-05-03 21:38 25.51282 -65.89061 35113 ft 472 kts 175°
2026-05-03 21:39 25.44833 -65.87909 35110 ft 472 kts 175°
2026-05-03 21:39 25.38351 -65.86751 35100 ft 472 kts 174°
2026-05-03 21:40 25.31855 -65.85593 35116 ft 473 kts 174°
2026-05-03 21:40 25.25357 -65.84435 35113 ft 473 kts 174°
2026-05-03 21:41 25.18914 -65.83288 35110 ft 473 kts 174°
2026-05-03 21:41 25.12416 -65.82133 35110 ft 473 kts 174°
2026-05-03 21:42 25.05917 -65.80979 35107 ft 473 kts 174°
2026-05-03 21:42 24.99410 -65.79824 35111 ft 474 kts 174°
2026-05-03 21:43 24.92958 -65.78682 35111 ft 473 kts 174°
2026-05-03 21:43 24.86452 -65.77532 35111 ft 473 kts 174°
2026-05-03 21:44 24.79945 -65.76381 35107 ft 473 kts 174°
2026-05-03 21:44 24.73443 -65.75233 35110 ft 474 kts 174°
2026-05-03 21:45 24.66932 -65.74085 35112 ft 474 kts 174°
2026-05-03 21:45 24.60470 -65.72946 35106 ft 474 kts 174°
2026-05-03 21:46 24.53955 -65.71799 35106 ft 474 kts 174°
2026-05-03 21:46 24.47439 -65.70653 35094 ft 474 kts 173°
2026-05-03 21:47 24.40923 -65.69509 35110 ft 475 kts 173°
2026-05-03 21:47 24.34439 -65.68371 35103 ft 475 kts 173°
2026-05-03 21:48 24.27911 -65.67227 35098 ft 475 kts 173°
2026-05-03 21:48 24.21393 -65.66086 35104 ft 475 kts 173°
2026-05-03 21:49 24.14868 -65.64944 35107 ft 475 kts 173°
2026-05-03 21:49 24.08378 -65.63810 35100 ft 475 kts 173°
2026-05-03 21:50 24.01845 -65.62670 35101 ft 475 kts 173°
2026-05-03 21:50 23.95321 -65.61532 35101 ft 475 kts 173°
2026-05-03 21:51 23.88783 -65.60393 35096 ft 476 kts 173°
2026-05-03 21:51 23.82237 -65.59254 35103 ft 476 kts 173°
2026-05-03 21:52 23.75743 -65.58125 35100 ft 476 kts 173°
2026-05-03 21:52 23.69208 -65.56990 35098 ft 476 kts 173°
2026-05-03 21:53 23.62662 -65.55854 35101 ft 476 kts 173°
2026-05-03 21:53 23.56106 -65.54718 35091 ft 477 kts 173°
2026-05-03 21:54 23.49612 -65.53506 35089 ft 478 kts 167°
2026-05-03 21:54 23.43169 -65.51680 35094 ft 479 kts 167°
2026-05-03 21:55 23.36737 -65.49825 35097 ft 479 kts 167°
2026-05-03 21:55 23.30296 -65.47965 35094 ft 479 kts 167°
2026-05-03 21:56 23.23899 -65.46120 35093 ft 479 kts 167°
2026-05-03 21:56 23.17468 -65.44267 35093 ft 479 kts 167°
2026-05-03 21:57 23.11028 -65.42413 35091 ft 479 kts 167°
2026-05-03 21:57 23.04587 -65.40561 35091 ft 479 kts 167°
2026-05-03 21:58 22.98155 -65.38713 35089 ft 479 kts 167°
2026-05-03 21:58 22.91755 -65.36876 35092 ft 479 kts 167°
2026-05-03 21:59 22.85306 -65.35027 35094 ft 479 kts 167°
2026-05-03 21:59 22.78867 -65.33182 35094 ft 479 kts 167°
2026-05-03 22:00 22.72464 -65.31350 35093 ft 479 kts 167°
2026-05-03 22:00 22.66012 -65.29505 35094 ft 479 kts 167°
2026-05-03 22:01 22.59567 -65.27664 35090 ft 479 kts 167°
2026-05-03 22:01 22.53116 -65.25823 35089 ft 479 kts 167°
2026-05-03 22:02 22.46709 -65.23997 35092 ft 479 kts 167°
2026-05-03 22:02 22.40265 -65.22162 35091 ft 479 kts 167°
2026-05-03 22:03 22.33814 -65.20326 35085 ft 479 kts 167°
2026-05-03 22:03 22.27365 -65.18493 35088 ft 479 kts 167°
2026-05-03 22:04 22.20926 -65.16664 35091 ft 479 kts 167°
2026-05-03 22:04 22.14521 -65.14847 35091 ft 479 kts 167°
2026-05-03 22:05 22.08072 -65.13019 35088 ft 479 kts 167°
2026-05-03 22:05 22.01634 -65.11196 35086 ft 479 kts 166°
2026-05-03 22:06 21.95192 -65.09374 35091 ft 479 kts 167°
2026-05-03 22:06 21.88792 -65.07565 35092 ft 479 kts 167°
2026-05-03 22:07 21.82356 -65.05748 35089 ft 479 kts 167°
2026-05-03 22:07 21.75917 -65.03931 35089 ft 479 kts 167°
2026-05-03 22:08 21.69477 -65.02116 35087 ft 478 kts 166°
2026-05-03 22:08 21.63087 -65.00317 35090 ft 478 kts 166°
2026-05-03 22:09 21.56853 -64.97896 35085 ft 479 kts 148°
2026-05-03 22:10 21.48334 -64.92255 35096 ft 481 kts 150°
2026-05-03 22:10 21.42589 -64.88602 35089 ft 480 kts 150°
2026-05-03 22:11 21.36879 -64.84976 35092 ft 480 kts 150°
2026-05-03 22:11 21.31142 -64.81337 35088 ft 480 kts 150°
2026-05-03 22:12 21.25397 -64.77696 35087 ft 480 kts 150°
2026-05-03 22:12 21.19651 -64.74058 35086 ft 480 kts 150°
2026-05-03 22:13 21.13903 -64.70422 35092 ft 480 kts 150°
2026-05-03 22:13 21.08202 -64.66819 35088 ft 480 kts 150°
2026-05-03 22:14 21.02455 -64.63190 35090 ft 479 kts 150°
2026-05-03 22:14 20.96707 -64.59564 35091 ft 479 kts 150°
2026-05-03 22:15 20.90958 -64.55941 35088 ft 479 kts 150°
2026-05-03 22:15 20.85255 -64.52349 35088 ft 480 kts 150°
2026-05-03 22:16 20.79511 -64.48735 35087 ft 480 kts 150°
2026-05-03 22:16 20.73760 -64.45120 35082 ft 479 kts 150°
2026-05-03 22:17 20.68007 -64.41507 35088 ft 480 kts 150°
2026-05-03 22:17 20.62300 -64.37926 35086 ft 480 kts 150°
2026-05-03 22:18 20.56544 -64.34317 35085 ft 480 kts 150°
2026-05-03 22:18 20.50784 -64.30709 35083 ft 480 kts 150°
2026-05-03 22:19 20.45034 -64.27111 35085 ft 480 kts 150°
2026-05-03 22:19 20.39279 -64.23512 35084 ft 480 kts 150°
2026-05-03 22:20 20.33557 -64.19937 35083 ft 480 kts 150°
2026-05-03 22:20 20.27801 -64.16344 35077 ft 480 kts 150°
2026-05-03 22:21 20.22042 -64.12753 35079 ft 480 kts 150°
2026-05-03 22:21 20.16317 -64.09186 35081 ft 480 kts 150°
2026-05-03 22:22 20.10559 -64.05601 35078 ft 480 kts 150°
2026-05-03 22:22 20.04794 -64.02015 35081 ft 480 kts 150°
2026-05-03 22:23 19.99036 -63.98436 35077 ft 480 kts 150°
2026-05-03 22:23 19.93269 -63.94855 35077 ft 480 kts 150°
2026-05-03 22:24 19.87539 -63.91300 35076 ft 480 kts 150°
2026-05-03 22:24 19.81771 -63.87724 35078 ft 480 kts 150°
2026-05-03 22:25 19.76010 -63.84156 35079 ft 480 kts 150°
2026-05-03 22:25 19.70237 -63.80583 35076 ft 481 kts 150°
2026-05-03 22:26 19.64497 -63.77033 35076 ft 481 kts 150°
2026-05-03 22:26 19.58727 -63.73468 35069 ft 481 kts 150°
2026-05-03 22:27 19.52938 -63.69895 35072 ft 482 kts 150°
2026-05-03 22:27 19.47184 -63.66346 35077 ft 482 kts 150°
2026-05-03 22:28 19.41398 -63.62781 35078 ft 481 kts 150°
2026-05-03 22:28 19.35611 -63.59217 35085 ft 481 kts 150°
2026-05-03 22:29 19.29817 -63.55652 35079 ft 482 kts 150°
2026-05-03 22:29 19.24028 -63.52093 35072 ft 481 kts 150°
2026-05-03 22:30 19.18275 -63.48560 35069 ft 481 kts 150°
2026-05-03 22:30 19.12487 -63.45007 35067 ft 482 kts 150°
2026-05-03 22:31 19.06691 -63.41453 35065 ft 482 kts 150°
2026-05-03 22:31 19.00925 -63.37920 35074 ft 482 kts 150°
2026-05-03 22:32 18.95124 -63.34368 35074 ft 482 kts 150°
2026-05-03 22:32 18.89360 -63.30842 35059 ft 483 kts 150°
2026-05-03 22:33 18.83551 -63.27291 35065 ft 482 kts 150°
2026-05-03 22:33 18.77746 -63.23746 35061 ft 482 kts 150°
2026-05-03 22:34 18.71945 -63.20205 35056 ft 483 kts 150°
2026-05-03 22:34 18.66125 -63.16657 35025 ft 481 kts 150°
2026-05-03 22:34 18.63282 -63.14924 34317 ft 481 kts 150°
2026-05-03 22:35 18.60349 -63.13138 33000 ft 493 kts 150°
2026-05-03 22:35 18.57376 -63.11328 32295 ft 491 kts 149°
2026-05-03 22:35 18.54442 -63.09543 31776 ft 484 kts 149°
2026-05-03 22:35 18.51536 -63.07774 31076 ft 483 kts 149°
2026-05-03 22:36 18.48630 -63.06008 30354 ft 482 kts 149°
2026-05-03 22:36 18.45732 -63.04245 29573 ft 481 kts 149°
2026-05-03 22:36 18.42826 -63.02479 28636 ft 482 kts 149°
2026-05-03 22:36 18.39916 -63.00711 27698 ft 484 kts 149°
2026-05-03 22:37 18.36997 -62.98939 26690 ft 487 kts 149°
2026-05-03 22:37 18.34045 -62.97148 25672 ft 491 kts 149°
2026-05-03 22:37 18.31113 -62.95370 24698 ft 494 kts 149°
2026-05-03 22:37 18.28148 -62.93571 23981 ft 491 kts 149°
2026-05-03 22:38 18.25200 -62.91783 23259 ft 487 kts 149°
2026-05-03 22:38 18.22280 -62.90015 22499 ft 482 kts 150°
2026-05-03 22:38 18.19392 -62.88265 21855 ft 476 kts 150°
2026-05-03 22:38 18.16549 -62.86543 21279 ft 469 kts 150°
2026-05-03 22:39 18.13742 -62.84843 20741 ft 462 kts 150°
2026-05-03 22:39 18.10977 -62.83170 20225 ft 455 kts 150°
2026-05-03 22:39 18.08261 -62.81527 19749 ft 448 kts 150°
2026-05-03 22:39 18.05577 -62.79902 19291 ft 442 kts 151°
2026-05-03 22:40 18.02928 -62.78302 18837 ft 436 kts 150°
2026-05-03 22:40 18.00349 -62.76744 18392 ft 430 kts 150°
2026-05-03 22:40 17.97770 -62.75185 17890 ft 425 kts 151°
2026-05-03 22:40 17.95223 -62.73647 17424 ft 419 kts 150°
2026-05-03 22:41 17.92712 -62.72130 16990 ft 413 kts 151°
2026-05-03 22:41 17.90241 -62.70640 16594 ft 407 kts 150°
2026-05-03 22:41 17.87804 -62.69169 16235 ft 401 kts 150°
2026-05-03 22:41 17.85412 -62.67726 15886 ft 394 kts 150°
2026-05-03 22:42 17.83051 -62.66303 15514 ft 389 kts 150°
2026-05-03 22:42 17.80747 -62.64915 15166 ft 384 kts 150°
2026-05-03 22:42 17.78457 -62.63535 14941 ft 375 kts 150°
2026-05-03 22:42 17.76222 -62.62189 14757 ft 366 kts 150°
2026-05-03 22:43 17.74040 -62.60875 14523 ft 358 kts 150°
2026-05-03 22:43 17.71888 -62.59579 14147 ft 356 kts 150°
2026-05-03 22:43 17.69751 -62.58293 13832 ft 352 kts 149°
2026-05-03 22:43 17.67638 -62.57022 13406 ft 350 kts 149°
2026-05-03 22:44 17.65538 -62.55756 13048 ft 346 kts 148°
2026-05-03 22:44 17.63719 -62.54201 12668 ft 341 kts 134°
2026-05-03 22:44 17.62038 -62.52451 12269 ft 339 kts 135°
2026-05-03 22:44 17.60373 -62.50747 12075 ft 331 kts 135°
2026-05-03 22:45 17.58746 -62.49089 11916 ft 321 kts 135°
2026-05-03 22:45 17.57163 -62.47481 11778 ft 312 kts 135°
2026-05-03 22:45 17.55628 -62.45923 11641 ft 303 kts 135°
2026-05-03 22:45 17.54124 -62.44398 11343 ft 300 kts 135°
2026-05-03 22:46 17.52628 -62.42881 11057 ft 298 kts 135°
2026-05-03 22:46 17.51166 -62.41398 10801 ft 294 kts 135°
2026-05-03 22:46 17.49719 -62.39932 10692 ft 285 kts 135°
2026-05-03 22:46 17.48308 -62.38504 10417 ft 282 kts 135°
2026-05-03 22:47 17.46905 -62.37083 10175 ft 279 kts 135°
2026-05-03 22:47 17.45512 -62.35673 9827 ft 280 kts 135°
2026-05-03 22:47 17.44117 -62.34260 9542 ft 277 kts 135°
2026-05-03 22:47 17.42737 -62.32863 9268 ft 274 kts 135°
2026-05-03 22:48 17.41371 -62.31480 8938 ft 274 kts 135°
2026-05-03 22:48 17.40021 -62.30115 8644 ft 272 kts 135°
2026-05-03 22:48 17.38667 -62.28747 8367 ft 270 kts 135°
2026-05-03 22:48 17.37318 -62.27382 8060 ft 269 kts 135°
2026-05-03 22:49 17.35980 -62.26029 7806 ft 266 kts 135°
2026-05-03 22:49 17.34656 -62.24691 7548 ft 263 kts 134°
2026-05-03 22:49 17.33351 -62.23373 7311 ft 259 kts 135°
2026-05-03 22:49 17.32054 -62.22062 7017 ft 258 kts 134°
2026-05-03 22:50 17.30762 -62.20757 6698 ft 259 kts 134°
2026-05-03 22:50 17.29471 -62.19453 6427 ft 257 kts 134°
2026-05-03 22:50 17.28188 -62.18158 6091 ft 257 kts 134°
2026-05-03 22:50 17.26925 -62.16883 5815 ft 255 kts 134°
2026-05-03 22:51 17.25647 -62.15593 5511 ft 254 kts 134°
2026-05-03 22:51 17.24383 -62.14318 5255 ft 251 kts 134°
2026-05-03 22:51 17.23130 -62.13053 4988 ft 249 kts 134°
2026-05-03 22:51 17.21881 -62.11793 4669 ft 250 kts 134°
2026-05-03 22:52 17.20634 -62.10535 4384 ft 248 kts 134°
2026-05-03 22:52 17.19392 -62.09284 4085 ft 247 kts 135°
2026-05-03 22:52 17.18172 -62.08053 3831 ft 245 kts 134°
2026-05-03 22:52 17.16971 -62.06843 3761 ft 235 kts 134°
2026-05-03 22:53 17.15815 -62.05679 3675 ft 226 kts 135°
2026-05-03 22:53 17.14707 -62.04563 3573 ft 216 kts 134°
2026-05-03 22:53 17.13653 -62.03500 3473 ft 206 kts 134°
2026-05-03 22:53 17.12644 -62.02483 3285 ft 201 kts 134°
2026-05-03 22:54 17.11557 -62.01563 3053 ft 199 kts 145°
2026-05-03 22:54 17.10417 -62.00834 2987 ft 187 kts 145°
2026-05-03 22:54 17.09325 -62.00136 2984 ft 183 kts 146°
2026-05-03 22:54 17.08258 -61.99454 2930 ft 181 kts 146°
2026-05-03 22:55 17.07188 -61.98769 2805 ft 180 kts 146°
2026-05-03 22:55 17.06127 -61.98088 2660 ft 179 kts 145°
2026-05-03 22:55 17.05077 -61.97381 2512 ft 178 kts 135°
2026-05-03 22:55 17.04465 -61.96317 2398 ft 172 kts 101°
2026-05-03 22:56 17.04535 -61.95080 2332 ft 174 kts 72°
2026-05-03 22:56 17.05088 -61.93943 2311 ft 177 kts 63°
2026-05-03 22:56 17.05697 -61.92856 2256 ft 168 kts 63°
2026-05-03 22:56 17.06287 -61.91823 2144 ft 161 kts 63°
2026-05-03 22:57 17.06829 -61.90853 2133 ft 150 kts 65°
2026-05-03 22:57 17.07358 -61.89928 2201 ft 152 kts 62°
2026-05-03 22:57 17.07912 -61.88994 2146 ft 148 kts 63°
2026-05-03 22:57 17.08454 -61.88100 1877 ft 144 kts 61°
2026-05-03 22:58 17.08998 -61.87247 1520 ft 141 kts 60°
2026-05-03 22:58 17.09527 -61.86407 1423 ft 136 kts 58°
2026-05-03 22:58 17.10012 -61.85551 1269 ft 137 kts 65°
2026-05-03 22:58 17.10481 -61.84672 1098 ft 140 kts 61°
2026-05-03 22:59 17.11008 -61.83827 953 ft 140 kts 59°
2026-05-03 22:59 17.11510 -61.82941 769 ft 144 kts 61°
2026-05-03 22:59 17.12031 -61.82058 590 ft 142 kts 58°
2026-05-03 22:59 17.12563 -61.81166 371 ft 148 kts 62°
2026-05-03 23:00 17.13102 -61.80244 116 ft 147 kts 59°
2026-05-03 23:00 17.13593 -61.79398 68 ft 123 kts 59°
2026-05-03 23:00 17.13932 -61.78823 63 ft 65 kts 57°
2026-05-03 23:00 17.14049 -61.78620 66 ft 10 kts 71°
2026-05-03 23:01 17.14078 -61.78587 67 ft 3 kts 342°
2026-05-03 23:01 17.14093 -61.78612 65 ft 6 kts 282°
2026-05-03 23:01 17.14096 -61.78669 69 ft 9 kts 275°
2026-05-03 23:01 17.14102 -61.78736 65 ft 9 kts 276°
2026-05-03 23:02 17.14108 -61.78807 68 ft 12 kts 275°
2026-05-03 23:02 17.14093 -61.78882 63 ft 9 kts 240°
2026-05-03 23:02 17.14059 -61.78942 62 ft 9 kts 237°
2026-05-03 23:02 17.14041 -61.78971 58 ft 3 kts 238°
2026-05-03 23:03 17.14044 -61.78995 61 ft 4 kts 307°
2026-05-03 23:03 17.14072 -61.79017 66 ft 4 kts 326°
2026-05-03 23:03 17.14092 -61.79031 61 ft 2 kts 328°
2026-05-03 23:03 17.14097 -61.79034 63 ft 0 kts 328°
2026-05-03 23:04 17.14099 -61.79036 61 ft 1 kts 328°
2026-05-03 23:04 17.14100 -61.79036 61 ft 0 kts 328°